When you browse on this site, cookies collect data to enhance your experience and personalize the content and advertising you see.
Visit our Privacy Policy to learn more. By continuing to use the site, you agree to this use of cookies and data.
  • In Hungary
  • List of Countries
  • For 7 days
  • Water Temperature
  • Satellite Maps
  • Weather Map
  • News
  • Weather Widgets
  • user-avatar
    Login

    Hourly Weather Nova Aurora

    Today, 21 January, Monday

    Time Temperature Precipitation Wind Pressure Humidity
    00:00 +25°C° 0 mm 1 mps 723 mmHg 85%
    01:00 +25°C° 0 mm 1 mps 723 mmHg 86%
    02:00 +25°C° 0 mm 1 mps 723 mmHg 87%
    03:00 +24°C° 0 mm 1 mps 723 mmHg 87%
    04:00 +24°C° 0 mm 1 mps 723 mmHg 88%
    05:00 +24°C° 0 mm 1 mps 724 mmHg 89%
    06:00 +25°C° 0 mm 1 mps 724 mmHg 85%
    07:00 +27°C° 0 mm 1 mps 725 mmHg 81%
    08:00 +28°C° 0 mm 2 mps 725 mmHg 77%
    09:00 +29°C° 0.1 mm 2 mps 725 mmHg 72%
    10:00 +31°C° 0.1 mm 2 mps 725 mmHg 67%
    11:00 +33°C° 0.1 mm 3 mps 725 mmHg 63%
    12:00 +33°C° 0.2 mm 3 mps 725 mmHg 62%
    13:00 +33°C° 0.2 mm 3 mps 725 mmHg 62%
    14:00 +34°C° 0.2 mm 3 mps 724 mmHg 62%
    15:00 +32°C° 0 mm 2 mps 724 mmHg 64%
    16:00 +32°C° 0 mm 2 mps 724 mmHg 67%
    17:00 +32°C° 0 mm 2 mps 723 mmHg 70%
    18:00 +31°C° 0 mm 1 mps 724 mmHg 71%
    19:00 +29°C° 0 mm 1 mps 724 mmHg 72%
    20:00 +26°C° 0 mm 0 mps 724 mmHg 73%
    21:00 +26°C° 0 mm 0 mps 724 mmHg 74%
    22:00 +25°C° 0 mm 0 mps 724 mmHg 75%
    23:00 +27°C° 0 mm 1 mps 724 mmHg 76%

    Tomorrow, 22 January, Tuesday

    Time Temperature Precipitation Wind Pressure Humidity
    00:00 +27°C° 0 mm 1 mps 724 mmHg 78%
    01:00 +26°C° 0 mm 1 mps 724 mmHg 79%
    02:00 +26°C° 0 mm 1 mps 723 mmHg 81%
    03:00 +26°C° 0 mm 1 mps 724 mmHg 83%
    04:00 +25°C° 0 mm 1 mps 724 mmHg 84%
    05:00 +25°C° 0 mm 1 mps 724 mmHg 86%
    06:00 +27°C° 0 mm 1 mps 725 mmHg 82%
    07:00 +28°C° 0 mm 1 mps 725 mmHg 78%
    08:00 +30°C° 0 mm 1 mps 726 mmHg 74%
    09:00 +31°C° 0.1 mm 1 mps 726 mmHg 69%
    10:00 +32°C° 0.1 mm 1 mps 725 mmHg 63%
    11:00 +33°C° 0.1 mm 1 mps 725 mmHg 58%
    12:00 +34°C° 0 mm 1 mps 725 mmHg 57%
    13:00 +34°C° 0 mm 1 mps 724 mmHg 56%
    14:00 +34°C° 0 mm 1 mps 724 mmHg 55%
    15:00 +34°C° 0 mm 1 mps 723 mmHg 58%
    16:00 +34°C° 0 mm 1 mps 723 mmHg 61%
    17:00 +34°C° 0 mm 1 mps 723 mmHg 63%
    18:00 +32°C° 0 mm 1 mps 723 mmHg 65%
    19:00 +31°C° 0 mm 1 mps 723 mmHg 66%
    20:00 +29°C° 0 mm 1 mps 723 mmHg 68%
    21:00 +29°C° 0 mm 1 mps 724 mmHg 69%
    22:00 +29°C° 0 mm 1 mps 724 mmHg 70%
    23:00 +28°C° 0 mm 1 mps 724 mmHg 71%

    Day after tomorrow, 23 January, Wednesday

    Time Temperature Precipitation Wind Pressure Humidity
    00:00 +28°C° 0 mm 1 mps 724 mmHg 72%
    01:00 +28°C° 0 mm 1 mps 723 mmHg 74%
    02:00 +27°C° 0 mm 1 mps 723 mmHg 76%
    03:00 +27°C° 0 mm 1 mps 723 mmHg 77%
    04:00 +26°C° 0 mm 1 mps 723 mmHg 79%
    05:00 +26°C° 0 mm 1 mps 723 mmHg 81%
    06:00 +27°C° 0 mm 2 mps 724 mmHg 79%
    07:00 +29°C° 0 mm 2 mps 725 mmHg 76%
    08:00 +30°C° 0 mm 2 mps 725 mmHg 74%
    09:00 +31°C° 0 mm 2 mps 725 mmHg 69%
    10:00 +32°C° 0 mm 1 mps 725 mmHg 63%
    11:00 +34°C° 0 mm 1 mps 725 mmHg 58%
    12:00 +34°C° 0 mm 1 mps 725 mmHg 56%
    13:00 +36°C° 0 mm 2 mps 724 mmHg 54%
    14:00 +36°C° 0 mm 2 mps 723 mmHg 51%
    15:00 +36°C° 0 mm 2 mps 723 mmHg 56%
    16:00 +36°C° 0 mm 2 mps 723 mmHg 60%
    17:00 +35°C° 0 mm 2 mps 722 mmHg 64%
    18:00 +34°C° 0 mm 2 mps 723 mmHg 66%
    19:00 +31°C° 0 mm 2 mps 723 mmHg 68%
    20:00 +30°C° 0 mm 2 mps 723 mmHg 70%
    21:00 +29°C° 0 mm 2 mps 723 mmHg 72%
    22:00 +29°C° 0 mm 2 mps 723 mmHg 74%
    23:00 +28°C° 0 mm 2 mps 723 mmHg 76%

    24 January, Thursday

    Time Temperature Precipitation Wind Pressure Humidity
    00:00 +28°C° 0 mm 2 mps 723 mmHg 76%
    01:00 +27°C° 0 mm 1 mps 722 mmHg 77%
    02:00 +27°C° 0 mm 1 mps 721 mmHg 77%
    03:00 +26°C° 0 mm 1 mps 722 mmHg 78%
    04:00 +26°C° 0 mm 1 mps 722 mmHg 79%
    05:00 +26°C° 0 mm 2 mps 722 mmHg 81%
    06:00 +27°C° 0 mm 2 mps 723 mmHg 79%
    07:00 +28°C° 0 mm 2 mps 723 mmHg 77%
    08:00 +30°C° 0 mm 3 mps 724 mmHg 75%
    09:00 +31°C° 0.4 mm 2 mps 724 mmHg 70%
    10:00 +32°C° 0.4 mm 2 mps 724 mmHg 66%
    11:00 +33°C° 0.4 mm 1 mps 724 mmHg 61%
    12:00 +34°C° 0.5 mm 1 mps 723 mmHg 58%
    13:00 +34°C° 0.5 mm 1 mps 722 mmHg 55%
    14:00 +33°C° 0.5 mm 0 mps 722 mmHg 52%
    15:00 +35°C° 0 mm 1 mps 721 mmHg 56%
    16:00 +34°C° 0 mm 1 mps 721 mmHg 59%
    17:00 +34°C° 0 mm 1 mps 721 mmHg 63%
    18:00 +32°C° 0.3 mm 2 mps 721 mmHg 68%
    19:00 +30°C° 0.3 mm 3 mps 722 mmHg 73%
    20:00 +28°C° 0.3 mm 4 mps 722 mmHg 78%
    21:00 +27°C° 0 mm 3 mps 722 mmHg 80%
    22:00 +27°C° 0 mm 3 mps 722 mmHg 82%
    23:00 +26°C° 0 mm 3 mps 722 mmHg 85%

    25 January, Friday

    Time Temperature Precipitation Wind Pressure Humidity
    00:00 +26°C° 0 mm 3 mps 722 mmHg 86%
    01:00 +25°C° 0 mm 3 mps 721 mmHg 88%
    02:00 +25°C° 0 mm 3 mps 721 mmHg 89%
    03:00 +24°C° 0 mm 3 mps 721 mmHg 91%
    04:00 +24°C° 0 mm 2 mps 721 mmHg 92%
    05:00 +24°C° 0 mm 2 mps 721 mmHg 93%
    06:00 +25°C° 0 mm 3 mps 722 mmHg 90%
    07:00 +26°C° 0 mm 4 mps 723 mmHg 86%
    08:00 +28°C° 0 mm 4 mps 723 mmHg 82%
    09:00 +29°C° 0 mm 4 mps 723 mmHg 76%
    10:00 +32°C° 0 mm 4 mps 723 mmHg 71%
    11:00 +33°C° 0 mm 4 mps 723 mmHg 65%
    12:00 +33°C° 0.6 mm 3 mps 722 mmHg 63%
    13:00 +34°C° 0.6 mm 3 mps 722 mmHg 62%
    14:00 +34°C° 0.6 mm 2 mps 721 mmHg 60%
    15:00 +32°C° 0.7 mm 2 mps 721 mmHg 65%
    16:00 +33°C° 0.7 mm 3 mps 721 mmHg 69%
    17:00 +31°C° 0.7 mm 3 mps 720 mmHg 74%
    18:00 +30°C° 0 mm 3 mps 721 mmHg 76%
    19:00 +28°C° 0 mm 4 mps 721 mmHg 78%
    20:00 +27°C° 0 mm 4 mps 721 mmHg 80%
    21:00 +27°C° 0 mm 4 mps 722 mmHg 82%
    22:00 +26°C° 0 mm 4 mps 722 mmHg 83%
    23:00 +25°C° 0 mm 3 mps 722 mmHg 84%

    26 January, Saturday

    Time Temperature Precipitation Wind Pressure Humidity
    00:00 +25°C° 0 mm 4 mps 722 mmHg 85%
    01:00 +25°C° 0 mm 4 mps 722 mmHg 86%
    02:00 +25°C° 0 mm 4 mps 722 mmHg 87%
    03:00 +23°C° 0 mm 4 mps 722 mmHg 89%
    04:00 +24°C° 0 mm 3 mps 722 mmHg 90%
    05:00 +22°C° 0 mm 3 mps 722 mmHg 92%
    06:00 +23°C° 0 mm 4 mps 722 mmHg 88%
    07:00 +26°C° 0 mm 4 mps 723 mmHg 84%
    08:00 +27°C° 0 mm 5 mps 724 mmHg 81%
    09:00 +28°C° 0 mm 5 mps 724 mmHg 76%
    10:00 +30°C° 0 mm 4 mps 723 mmHg 72%
    11:00 +32°C° 0 mm 4 mps 723 mmHg 67%
    12:00 +32°C° 0.1 mm 4 mps 723 mmHg 66%
    13:00 +33°C° 0.1 mm 3 mps 722 mmHg 64%
    14:00 +33°C° 0.1 mm 3 mps 722 mmHg 62%
    15:00 +31°C° 1.6 mm 3 mps 721 mmHg 67%
    16:00 +30°C° 1.6 mm 3 mps 721 mmHg 73%
    17:00 +29°C° 1.6 mm 3 mps 721 mmHg 78%
    18:00 +28°C° 0 mm 3 mps 722 mmHg 81%
    19:00 +26°C° 0 mm 4 mps 722 mmHg 84%
    20:00 +25°C° 0 mm 4 mps 722 mmHg 87%
    21:00 +25°C° 0 mm 4 mps 723 mmHg 87%
    22:00 +25°C° 0 mm 5 mps 723 mmHg 87%
    23:00 +23°C° 0 mm 5 mps 723 mmHg 87%
    Show more